Radiation Dose at Monitoring Post of Fukushima Daini Nuclear Power Station
Date,Time,MP-1(microSv/h),MP-2(microSv/h),MP-3(microSv/h),MP-4(microSv/h),MP-5(microSv/h),MP-6(microSv/h),MP-7(microSv/h),Wind Direction,Wind Velocity(m/s),Rain
2018/10/30,00:00,0.311,0.190,0.308,0.295,0.282,0.155,0.095,southeast,0.8,No
2018/10/30,00:10,0.311,0.190,0.310,0.297,0.282,0.155,0.095,south-southeast,2.1,No
2018/10/30,00:20,0.311,0.191,0.308,0.295,0.282,0.155,0.095,south-southwest,2.8,No
2018/10/30,00:30,0.312,0.190,0.309,0.296,0.282,0.154,0.095,south,3.8,No
2018/10/30,00:40,0.311,0.192,0.309,0.296,0.282,0.155,0.095,south,3.4,No
2018/10/30,00:50,0.311,0.191,0.307,0.296,0.280,0.154,0.095,south,3.0,No
2018/10/30,01:00,0.311,0.191,0.307,0.295,0.283,0.155,0.095,south,4.3,No
2018/10/30,01:10,0.310,0.191,0.308,0.295,0.282,0.155,0.095,south,4.7,No
2018/10/30,01:20,0.311,0.191,0.307,0.295,0.283,0.155,0.095,south,4.3,No
2018/10/30,01:30,0.309,0.191,0.309,0.296,0.282,0.155,0.096,south,4.8,No
2018/10/30,01:40,0.310,0.193,0.309,0.297,0.280,0.153,0.094,south-southwest,5.3,No
2018/10/30,01:50,0.310,0.191,0.308,0.295,0.282,0.155,0.095,southwest,5.2,No
2018/10/30,02:00,0.311,0.190,0.307,0.297,0.281,0.153,0.095,south-southwest,4.7,No
2018/10/30,02:10,0.309,0.192,0.310,0.296,0.280,0.154,0.095,southwest,4.6,No
2018/10/30,02:20,0.311,0.190,0.306,0.295,0.283,0.155,0.095,south-southwest,4.9,No
2018/10/30,02:30,0.310,0.191,0.307,0.296,0.281,0.156,0.095,south-southwest,4.7,No
2018/10/30,02:40,0.309,0.190,0.307,0.297,0.281,0.155,0.095,south-southwest,6.0,No
2018/10/30,02:50,0.311,0.190,0.307,0.296,0.282,0.155,0.096,south-southwest,5.7,No
2018/10/30,03:00,0.309,0.190,0.308,0.297,0.281,0.155,0.094,south-southwest,6.7,No
2018/10/30,03:10,0.309,0.191,0.309,0.296,0.281,0.155,0.095,south-southwest,6.6,No
2018/10/30,03:20,0.311,0.192,0.309,0.296,0.281,0.154,0.094,south-southwest,6.5,No
2018/10/30,03:30,0.309,0.191,0.308,0.296,0.280,0.154,0.095,south-southwest,7.4,No
2018/10/30,03:40,0.309,0.190,0.308,0.297,0.282,0.154,0.095,south-southwest,7.6,No
2018/10/30,03:50,0.311,0.191,0.307,0.296,0.281,0.155,0.095,south-southwest,7.8,No
2018/10/30,04:00,0.308,0.191,0.308,0.295,0.281,0.155,0.095,south-southwest,7.3,No
2018/10/30,04:10,0.310,0.190,0.309,0.296,0.283,0.155,0.095,south-southwest,7.9,No
2018/10/30,04:20,0.311,0.191,0.307,0.296,0.280,0.155,0.096,south-southwest,8.2,No
2018/10/30,04:30,0.310,0.191,0.308,0.294,0.281,0.155,0.094,southwest,7.8,No
2018/10/30,04:40,0.309,0.190,0.308,0.297,0.281,0.154,0.094,southwest,7.4,No
2018/10/30,04:50,0.309,0.190,0.306,0.294,0.280,0.154,0.094,south-southwest,7.7,No
2018/10/30,05:00,0.310,0.190,0.309,0.295,0.280,0.154,0.095,south-southwest,6.8,No
2018/10/30,05:10,0.310,0.190,0.309,0.296,0.280,0.154,0.095,southwest,6.8,No
2018/10/30,05:20,0.309,0.190,0.306,0.295,0.281,0.154,0.095,southwest,6.8,No
2018/10/30,05:30,0.309,0.190,0.310,0.295,0.282,0.154,0.094,south-southwest,5.8,No
2018/10/30,05:40,0.311,0.190,0.309,0.295,0.281,0.154,0.094,southwest,4.9,No
2018/10/30,05:50,0.310,0.191,0.307,0.296,0.281,0.155,0.095,west-southwest,3.5,No
2018/10/30,06:00,0.311,0.191,0.309,0.295,0.283,0.155,0.094,southwest,2.7,No
2018/10/30,06:10,0.310,0.190,0.308,0.296,0.281,0.154,0.094,southwest,2.6,No
2018/10/30,06:20,0.309,0.190,0.308,0.297,0.280,0.154,0.094,southwest,1.1,No
2018/10/30,06:30,0.309,0.192,0.309,0.296,0.281,0.155,0.095,west,1.6,No
2018/10/30,06:40,0.310,0.190,0.308,0.296,0.281,0.154,0.095,west,1.7,No
2018/10/30,06:50,0.310,0.189,0.308,0.295,0.281,0.155,0.095,west,2.9,No
2018/10/30,07:00,0.311,0.190,0.308,0.296,0.281,0.154,0.095,west-southwest,3.7,No
2018/10/30,07:10,0.310,0.191,0.308,0.296,0.280,0.155,0.095,west-southwest,4.6,No
2018/10/30,07:20,0.309,0.191,0.307,0.294,0.282,0.155,0.095,southwest,5.2,No
2018/10/30,07:30,0.310,0.190,0.309,0.295,0.280,0.155,0.095,southwest,4.7,No
2018/10/30,07:40,0.309,0.190,0.307,0.294,0.282,0.155,0.095,west,1.8,No
2018/10/30,07:50,0.310,0.189,0.308,0.294,0.279,0.154,0.095,northwest,1.6,No
2018/10/30,08:00,0.309,0.191,0.307,0.294,0.281,0.154,0.094,north-northeast,1.0,No
2018/10/30,08:10,0.309,0.191,0.306,0.295,0.281,0.154,0.096,north,1.8,No
2018/10/30,08:20,0.310,0.191,0.309,0.296,0.281,0.154,0.094,north-northwest,0.6,No
2018/10/30,08:30,0.309,0.190,0.307,0.294,0.281,0.154,0.094,west,1.6,No
2018/10/30,08:40,0.310,0.190,0.307,0.294,0.281,0.154,0.095,west-northwest,2.1,No
2018/10/30,08:50,0.310,0.189,0.307,0.294,0.283,0.154,0.094,west-northwest,1.1,No
2018/10/30,09:00,0.310,0.190,0.307,0.291,0.281,0.154,0.094,west,2.5,No
2018/10/30,09:10,0.310,0.189,0.308,0.294,0.281,0.154,0.095,west-southwest,2.4,No
2018/10/30,09:20,0.309,0.189,0.306,0.293,0.281,0.155,0.094,west-southwest,2.7,No
2018/10/30,09:30,0.307,0.189,0.309,0.294,0.280,0.153,0.094,southwest,2.6,No
2018/10/30,09:40,0.310,0.190,0.307,0.295,0.282,0.154,0.094,west-southwest,5.1,No
2018/10/30,09:50,0.308,0.192,0.308,0.292,0.279,0.154,0.094,west,6.8,No
2018/10/30,10:00,0.306,0.189,0.307,0.295,0.279,0.153,0.094,west,8.8,No
2018/10/30,10:10,0.309,0.190,0.308,0.295,0.280,0.155,0.094,west,6.8,No
2018/10/30,10:20,0.309,0.190,0.307,0.292,0.279,0.154,0.095,west-northwest,4.4,No
2018/10/30,10:30,0.304,0.189,0.307,0.296,0.280,0.155,0.095,west-northwest,6.1,No
2018/10/30,10:40,0.308,0.190,0.306,0.295,0.281,0.155,0.094,west,6.8,No
2018/10/30,10:50,0.311,0.190,0.309,0.293,0.279,0.154,0.094,west-northwest,7.4,No
2018/10/30,11:00,0.308,0.190,0.307,0.291,0.280,0.155,0.095,west,6.9,No
2018/10/30,11:10,0.307,0.191,0.308,0.294,0.282,0.154,0.094,west,4.9,No
2018/10/30,11:20,0.312,0.189,0.307,0.296,0.279,0.154,0.094,west-northwest,4.6,No
2018/10/30,11:30,0.308,0.191,0.309,0.294,0.279,0.155,0.095,west-northwest,2.9,No
2018/10/30,11:40,0.308,0.191,0.307,0.293,0.284,0.154,0.096,northwest,3.8,No
2018/10/30,11:50,0.312,0.189,0.309,0.293,0.280,0.155,0.094,northwest,5.8,No
2018/10/30,12:00,0.308,0.191,0.307,0.296,0.280,0.155,0.094,west-northwest,4.7,No
2018/10/30,12:10,0.312,0.189,0.309,0.297,0.281,0.154,0.095,northwest,5.6,No
2018/10/30,12:20,0.311,0.192,0.306,0.294,0.281,0.155,0.094,northwest,6.2,No
2018/10/30,12:30,0.311,0.192,0.309,0.293,0.280,0.155,0.094,northwest,5.9,No
2018/10/30,12:40,0.313,0.189,0.307,0.294,0.280,0.155,0.096,northwest,7.3,No
2018/10/30,12:50,0.310,0.191,0.308,0.297,0.283,0.155,0.095,northwest,6.0,No
2018/10/30,13:00,0.311,0.191,0.309,0.296,0.281,0.156,0.094,west-northwest,4.2,No
2018/10/30,13:10,0.309,0.190,0.306,0.294,0.279,0.154,0.094,northwest,5.6,No
2018/10/30,13:20,0.313,0.192,0.310,0.293,0.280,0.154,0.095,west-northwest,5.9,No
2018/10/30,13:30,0.311,0.190,0.308,0.293,0.282,0.155,0.095,northwest,5.8,No
2018/10/30,13:40,0.313,0.191,0.305,0.295,0.279,0.154,0.095,northwest,6.4,No
2018/10/30,13:50,0.311,0.192,0.307,0.297,0.280,0.155,0.095,west-northwest,7.5,No
2018/10/30,14:00,0.312,0.190,0.307,0.295,0.284,0.156,0.096,west-northwest,6.5,No
2018/10/30,14:10,0.311,0.191,0.310,0.298,0.281,0.154,0.095,west-northwest,5.0,No
2018/10/30,14:20,0.312,0.190,0.308,0.296,0.284,0.155,0.095,west-northwest,4.1,No
2018/10/30,14:30,0.312,0.192,0.311,0.298,0.283,0.155,0.095,north-northwest,3.6,No
2018/10/30,14:40,0.312,0.191,0.308,0.298,0.282,0.155,0.095,northwest,6.3,No
2018/10/30,14:50,0.311,0.191,0.311,0.297,0.283,0.155,0.095,northwest,6.2,No
2018/10/30,15:00,0.313,0.192,0.310,0.297,0.283,0.155,0.094,north-northwest,4.7,No
2018/10/30,15:10,0.311,0.193,0.310,0.297,0.283,0.155,0.096,northwest,3.6,No
2018/10/30,15:20,0.312,0.191,0.308,0.298,0.284,0.155,0.095,northwest,1.5,No
2018/10/30,15:30,0.311,0.193,0.309,0.298,0.282,0.154,0.094,northwest,3.2,No
2018/10/30,15:40,0.312,0.191,0.310,0.297,0.283,0.156,0.095,west-northwest,2.8,No
2018/10/30,15:50,0.310,0.191,0.309,0.298,0.284,0.155,0.095,northwest,3.1,No
2018/10/30,16:00,0.313,0.192,0.310,0.296,0.281,0.156,0.095,west-northwest,4.8,No
2018/10/30,16:10,0.312,0.192,0.309,0.299,0.281,0.155,0.095,north-northwest,2.9,No
2018/10/30,16:20,0.312,0.192,0.311,0.297,0.283,0.155,0.096,northwest,4.5,No
2018/10/30,16:30,0.313,0.192,0.310,0.299,0.281,0.155,0.095,northwest,4.1,No
2018/10/30,16:40,0.312,0.193,0.309,0.298,0.283,0.156,0.095,northwest,4.5,No
2018/10/30,16:50,0.314,0.192,0.309,0.297,0.281,0.156,0.095,west-northwest,7.5,No
2018/10/30,17:00,0.313,0.192,0.311,0.298,0.282,0.155,0.095,northwest,6.8,No
2018/10/30,17:10,0.313,0.192,0.312,0.296,0.283,0.156,0.095,northwest,7.7,No
2018/10/30,17:20,0.312,0.192,0.309,0.298,0.282,0.155,0.095,northwest,5.9,No
2018/10/30,17:30,0.311,0.191,0.310,0.298,0.284,0.156,0.096,northwest,4.9,No
2018/10/30,17:40,0.314,0.192,0.310,0.295,0.283,0.155,0.095,north-northwest,4.5,No
2018/10/30,17:50,0.312,0.192,0.309,0.298,0.283,0.155,0.095,north-northwest,6.3,No
2018/10/30,18:00,0.313,0.191,0.310,0.298,0.283,0.155,0.096,northwest,5.7,No
2018/10/30,18:10,0.312,0.193,0.310,0.297,0.283,0.155,0.095,north-northwest,5.1,No
2018/10/30,18:20,0.311,0.191,0.310,0.298,0.283,0.155,0.097,north-northwest,2.0,No
2018/10/30,18:30,0.312,0.191,0.311,0.297,0.284,0.156,0.095,northwest,3.7,No
2018/10/30,18:40,0.312,0.193,0.309,0.299,0.283,0.155,0.096,north-northwest,3.7,No
2018/10/30,18:50,0.312,0.192,0.310,0.298,0.285,0.156,0.095,northwest,4.1,No
2018/10/30,19:00,0.313,0.192,0.310,0.297,0.282,0.156,0.096,northwest,5.2,No
2018/10/30,19:10,0.313,0.191,0.309,0.298,0.283,0.156,0.095,west-northwest,6.2,No
2018/10/30,19:20,0.313,0.191,0.311,0.299,0.283,0.156,0.095,northwest,5.0,No
2018/10/30,19:30,0.312,0.193,0.311,0.297,0.282,0.155,0.095,west-northwest,5.4,No
2018/10/30,19:40,0.312,0.191,0.310,0.299,0.284,0.156,0.096,west-northwest,4.6,No
2018/10/30,19:50,0.313,0.192,0.311,0.297,0.282,0.156,0.095,west-northwest,3.9,No
2018/10/30,20:00,0.311,0.192,0.310,0.298,0.284,0.156,0.095,northwest,3.6,No
2018/10/30,20:10,0.312,0.192,0.309,0.298,0.283,0.155,0.095,west,5.1,No
2018/10/30,20:20,0.313,0.191,0.310,0.297,0.282,0.156,0.096,west-northwest,5.6,No
2018/10/30,20:30,0.312,0.193,0.309,0.298,0.283,0.157,0.096,west-northwest,4.9,No
2018/10/30,20:40,0.314,0.191,0.311,0.298,0.282,0.155,0.095,west-northwest,6.1,No
2018/10/30,20:50,0.311,0.192,0.311,0.299,0.282,0.157,0.096,northwest,3.1,No
2018/10/30,21:00,0.313,0.193,0.310,0.298,0.283,0.156,0.096,northwest,4.0,No
2018/10/30,21:10,0.313,0.192,0.311,0.298,0.284,0.156,0.095,northwest,3.3,No
2018/10/30,21:20,0.311,0.193,0.311,0.298,0.283,0.156,0.095,west,7.1,No
2018/10/30,21:30,0.315,0.193,0.309,0.300,0.283,0.155,0.095,northwest,3.7,No
2018/10/30,21:40,0.313,0.192,0.312,0.298,0.283,0.156,0.096,northwest,3.6,No
2018/10/30,21:50,0.311,0.193,0.311,0.297,0.283,0.157,0.095,west-northwest,5.3,No
2018/10/30,22:00,0.313,0.193,0.311,0.298,0.282,0.156,0.095,northwest,4.7,No
2018/10/30,22:10,0.312,0.193,0.311,0.299,0.283,0.156,0.096,west-northwest,5.8,No
2018/10/30,22:20,0.312,0.191,0.310,0.298,0.284,0.156,0.095,west-northwest,5.4,No
2018/10/30,22:30,0.314,0.192,0.310,0.299,0.284,0.156,0.095,northwest,5.7,No
2018/10/30,22:40,0.313,0.192,0.312,0.299,0.282,0.156,0.095,west-northwest,7.2,No
2018/10/30,22:50,0.313,0.192,0.310,0.298,0.284,0.156,0.095,west,8.5,No
2018/10/30,23:00,0.312,0.193,0.309,0.299,0.283,0.156,0.096,west,10.0,No
2018/10/30,23:10,0.312,0.192,0.312,0.297,0.281,0.156,0.096,west,8.1,No
2018/10/30,23:20,0.313,0.191,0.309,0.299,0.283,0.155,0.096,west-northwest,9.3,No
2018/10/30,23:30,0.312,0.192,0.312,0.297,0.282,0.156,0.095,west,8.8,No
2018/10/30,23:40,0.313,0.192,0.313,0.297,0.283,0.156,0.095,west-northwest,9.8,No
2018/10/30,23:50,0.314,0.192,0.310,0.300,0.283,0.155,0.096,west-northwest,8.2,No
